Location: Bothwell
(42.3833°S, 147.0000°E)
Time: 14:55:44
(UTC+11:00)

FO-29 - Pass Details

Date: 16 June 2023
Orbit: 799 x 1321 km, 98.5° (Epoch: 01 October)

Event Time Altitude Azimuth Distance (km) Brightness Sun altitude
Rises 18:40:05 0° 179° (S) 4,230 12.7 -20.4°
Reaches altitude 10° 18:44:11 10° 200° (SSW) 3,172 12.2 -21.1°
Maximum altitude 18:47:56 15° 231° (SW) 2,703 12.3 -21.8°
Drops below altitude 10° 18:51:31 10° 263° (W) 2,970 13.0 -22.4°
Sets 18:55:09 0° 285° (WNW) 3,811 14.1 -23.1°
